#timestamp,LO_Frequency,Hit,StdDev 
1642435215.4,286046998.8,N
1642435235.2,286047001.2,N
1642435255.0,286047000.0,N
1642435255.9,286047000.0,N
1642435275.8,286046999.9,N
1642435295.6,286047001.2,N
1642435315.5,286046998.7,N
1642435335.3,286046999.4,N
1642435355.1,286046999.5,N
1642435375.9,286046998.4,N
1642435395.7,286046998.3,N
1642435415.5,286046998.6,N
1642435435.4,286046998.2,N
1642435455.2,286047000.9,N
1642435475.1,286046999.9,N
1642435476.0,286046999.9,N
1642435495.8,286047002.7,N
1642435515.6,286047002.4,N
1642435535.5,286047002.4,N
1642435555.3,286047002.4,N
1642435575.2,286046999.9,N
1642435595.9,286047002.6,N
1642435615.7,286047000.2,N
1642435635.6,286046998.2,N
1642435655.4,286047000.3,N
1642435675.2,286046999.8,N
1642435695.1,286047000.6,N
1642435696.0,286047000.6,N
1642435715.8,286047001.2,N
1642435735.7,286047000.4,N
1642435755.5,286047002.3,N
1642435775.3,286047002.3,N
1642435795.2,286047002.1,N
1642435815.9,286046999.9,N
1642435835.7,286047000.2,N
1642435855.6,286047002.6,N
1642435875.4,286047002.2,N
1642435895.3,286047000.8,N
1642435915.1,286047000.3,N
1642435916.0,286047000.3,N
1642435935.8,286047002.3,N
1642435955.7,286047002.7,N
1642435975.5,286047001.3,N
1642435995.4,286047004.1,Y
1642436015.2,286047000.2,P
1642436035.0,286046998.5,P
1642436035.9,286046998.5,N
1642436055.8,286046997.2,N
1642436075.6,286046997.4,N
1642436095.4,286046996.3,N
1642436115.3,286046993.7,Y
1642436135.1,286046997.4,P
1642436155.9,286046995.0,P
1642436175.7,286046997.0,N
1642436195.5,286046998.8,N
1642436215.4,286047001.2,N
1642436235.2,286046998.2,N
1642436255.0,286047001.1,N
1642436255.9,286047001.1,N
1642436275.8,286046998.7,N
1642436295.6,286046998.6,N
1642436315.5,286046996.5,N
1642436335.3,286046998.8,N
1642436385.2,286047001.0,E
1642436395.1,286046998.3,N
1642436396.0,286046998.3,P
1642436415.8,286046999.0,P
1642436435.7,286046996.5,Y
1642436455.5,286046999.0,P
1642436475.3,286046999.2,P
1642436495.2,286046999.0,P
1642436515.0,286046998.8,Y
1642436515.9,286046998.8,P
1642436535.8,286046999.7,P
1642436555.6,286046999.8,N
1642436575.4,286047000.4,N
1642436595.3,286046998.2,Y
1642436615.1,286047000.4,P
1642436635.9,286047000.3,N
1642436655.7,286047000.4,N
1642436675.5,286047001.2,Y
1642436695.4,286047000.7,P
1642436715.2,286047000.0,N
1642436735.0,286047002.4,P
1642436736.0,286047002.4,N
1642436755.8,286047002.6,N
1642436775.6,286047002.8,N
1642436795.5,286047001.6,N
1642436815.3,286047005.9,Y
1642436835.1,286047002.4,P
1642436855.9,286046999.9,N
1642436875.7,286047000.0,N
1642436895.6,286047001.9,N
1642436915.4,286047006.0,Y
1642436935.2,286047002.8,P
1642436955.1,286047004.1,P
1642436956.0,286047004.1,P
1642436975.8,286046999.7,N
1642436995.6,286047002.8,N
1642437015.5,286047001.9,N
1642437035.3,286047002.8,N
1642437055.2,286047000.2,N
1642437075.9,286047000.4,N
1642437095.7,286047002.8,N
1642437115.6,286047002.2,N
1642437135.4,286047000.2,N
1642437155.2,286047000.1,N
1642437175.1,286047001.3,N
1642437176.0,286047001.3,N
1642437195.8,286047002.7,N
1642437215.7,286047002.8,N
1642437235.5,286047000.5,N
1642437255.3,286047001.3,N
1642437275.2,286047001.8,N
1642437295.0,286047002.6,N
1642437295.9,286047002.6,N
1642437315.7,286047002.2,N
1642437335.6,286047000.0,N
1642437355.4,286047000.2,N
1642437375.3,286047000.8,N
1642437395.1,286047000.9,N
1642437396.0,286047000.9,N
1642437415.8,286047000.9,N
1642437435.7,286047000.7,N
1642437455.5,286046998.1,N
1642437475.3,286047000.4,N
1642437495.2,286047000.0,N
1642437515.0,286047000.3,N
1642437515.9,286047000.3,N
1642437535.8,286047001.6,N
1642437555.6,286047000.2,N
1642437575.4,286046998.2,N
1642437595.3,286047001.0,N
1642437645.1,286047002.7,E
1642437655.0,286047000.3,N
1642437655.9,286047000.3,P
1642437675.8,286046999.1,P
1642437695.6,286046999.3,N
1642437715.5,286046999.1,N
1642437735.3,286046998.6,N
1642437755.1,286046998.3,N
1642437775.9,286046999.0,N
1642437795.7,286046998.3,N
1642437815.6,286047001.1,N
1642437835.4,286047001.0,N
1642437855.2,286047001.0,N
1642437875.1,286046996.6,Y
1642437876.0,286046996.6,P
1642437895.8,286046999.5,N
1642437915.7,286046997.0,N
1642437935.5,286046996.8,N
1642437955.3,286046997.8,N
1642437975.2,286046999.3,N
1642437995.9,286046997.0,N
1642438015.7,286046997.2,N
1642438035.6,286046999.2,N
1642438055.4,286046999.0,N
1642438075.3,286046998.8,N
1642438095.1,286046999.1,N
1642438096.0,286046999.1,N
1642438115.8,286046995.3,Y
1642438135.7,286046997.0,P
1642438155.5,286046999.0,N
1642438175.3,286046999.1,N
1642438195.2,286046999.4,N
1642438215.0,286047000.9,N
1642438215.9,286047000.9,N
1642438235.8,286047000.6,N
1642438255.6,286047000.9,N
1642438275.4,286047001.1,N
1642438295.3,286047001.2,N
1642438315.1,286047000.9,N
1642438335.8,286047000.5,N
1642438355.7,286047000.7,N
1642438375.5,286047003.9,Y
1642438395.4,286047004.3,P
1642438415.2,286047004.4,N
1642438435.0,286047004.2,N
1642438435.9,286047004.2,N
1642438455.8,286047003.7,N
1642438475.6,286047003.6,N
1642438495.5,286047003.8,N
1642438515.3,286047004.3,Y
1642438535.1,286046999.2,P
1642438555.9,286046996.6,N
1642438575.7,286046999.6,N
1642438595.5,286046996.6,N
1642438615.4,286046999.5,N
1642438635.2,286046996.9,N
1642438655.1,286046996.9,N
1642438656.0,286046996.9,N
1642438675.8,286046999.5,N
1642438695.6,286046998.0,N
1642438715.5,286046996.7,N
1642438735.3,286046996.5,N
1642438755.2,286046997.2,N
1642438775.9,286046999.1,N
1642438795.7,286046997.5,N
